Miscellaneous Local Product
Issued by NWS Hastings, NE

Home | Current Version | Previous Version | Graphics & Text | Print | Product List | Glossary On
Versions: 1 2 3 4 5 6 7 8 9 10 11 12 13 14 15 16 17 18 19 20 21 22 23 24 25 26 27 28 29 30 31 32 33 34 35 36 37 38 39 40 41 42 43 44 45 46 47 48 49 50
000
AXUS43 KGID 181610
MISGRI

GID CWA HOURLY WEATHER ROUNDUP
NATIONAL WEATHER SERVICE HASTINGS NE
1100 AM CDT THU SEP 18 2014

NOTE: "FAIR" INDICATES FEW OR NO CLOUDS BELOW 12,000 FEET WITH NO
SIGNIFICANT WEATHER AND/OR OBSTRUCTIONS TO VISIBILITY.

...SOUTH CENTRAL NEBRASKA...

CITY           SKY/WX    TMP DP  RH WIND       PRES   REMARKS
GRAND ISLAND   PTSUNNY   69  60  73 SE10      30.01S
HASTINGS       SUNNY     68  58  70 SE13      30.00S
KEARNEY        SUNNY     70  59  68 SE16      30.00S
ORD            CLOUDY    65  59  81 SE12      30.00S
YORK           MOSUNNY   68  63  83 SE10      30.02S
AURORA         MOSUNNY   66  66 100 SE14      30.01S
LEXINGTON      MOSUNNY   69  61  77 SE14      29.99S
HOLDREGE       MOSUNNY   67  60  79 SE13      30.00R
HEBRON         SUNNY     71  61  70 SE12      30.00F

...NEBRASKA PANHANDLE...

CITY           SKY/WX    TMP DP  RH WIND       PRES   REMARKS
CHADRON        SUNNY     71  57  61 S8        29.90F
ALLIANCE       SUNNY     69  60  73 S14       29.96F
SCOTTSBLUFF    MOSUNNY   62  56  80 SE5       29.97F
SIDNEY         SUNNY     65  57  75 S10       30.02S

...WESTERN AND NORTH CENTRAL NEBRASKA...

CITY           SKY/WX    TMP DP  RH WIND       PRES   REMARKS
VALENTINE      MOSUNNY   72  58  61 S17G25    29.94S
AINSWORTH      SUNNY     69  58  68 S18       29.97S
ONEILL         CLOUDY    65  63  93 S13G21    30.01S
BROKEN BOW     MOSUNNY   68  59  73 S14G25    30.00S
IMPERIAL       CLOUDY    64  62  93 SE8       30.00R
NORTH PLATTE   CLOUDY    62  61  96 SE7       30.00R FOG
MCCOOK         FOG       63  62  97 SE9       29.99S VSB 1

...EASTERN NEBRASKA...

CITY           SKY/WX    TMP DP  RH WIND       PRES   REMARKS
NORFOLK        SUNNY     69  60  73 SE20      30.02S
SO SIOUX CITY  SUNNY     71  60  68 SE9       30.04R
TEKAMAH        PTSUNNY   65  59  81 S9        30.05S
ALBION         CLOUDY    64  62  94 S12G18    30.03R
OMAHA EPPLEY   MOSUNNY   68  58  70 SE8       30.04S
MILLARD        MOSUNNY   68  60  75 SE6       30.04R
LINCOLN        MOSUNNY   69  61  75 SE9       30.03S
NEBRASKA CITY  SUNNY     69  58  69 SE5       30.03S
BEATRICE       MOSUNNY   70  61  73 SE12      30.01F
FALLS CITY     CLOUDY    64  61  90 SE6       30.03R

...NORTHERN KANSAS...

CITY           SKY/WX    TMP DP  RH WIND       PRES   REMARKS
GOODLAND       CLOUDY    67  62  84 VRB3      30.01R
HILL CITY      FOG       64  63  96 E10       29.98R VSB 1
NORTON         CLOUDY    63  61  94 E9        29.97  FOG
PHILLIPSBURG   CLOUDY    64  64 100 E13       29.98S FOG
SMITH CENTER   CLOUDY    66  63  88 E17       29.99S
BELOIT         CLOUDY    68  64  88 E12       29.98R
HAYS           CLOUDY    66  63  88 E13       29.97R
RUSSELL        CLOUDY    66  64  93 E12       29.95S FOG
CONCORDIA      CLOUDY    67  65  93 SE13      30.00R
SALINA         CLOUDY    69  64  84 SE17      29.99R
TOPEKA         CLOUDY    67  64  90 E9        30.03R FOG



USA.gov is the U.S. government's official web portal to all federal, state and local government web resources and services.